Content
SEND FEEDBACK

Daily
Averages
Monthly
Summary
Mexico

GUADALUPE SEPTIÉN, QUERÉTARO


Home > North America > Mexico > Querétaro
Elevation: 6260 feet     Latitude: 20 30N     Longitude: 100 08W

WEATHER
 
SELECT A DAY
Number of Records: 117,367;   Date Range: 1/1/95 - 8/10/14
 
SHARE

PRINT THIS DATA

[ ← Previous Day ]
WEATHER ALMANAC - JANUARY 31, 2013
[ Next Day → ]
[ °C ]   °F
Weather ElementAverageHighLow
Temperature57.9 °F78 °F (2:52 pm)42.8 °F (5:45 am)
Dewpoint38.6 °F42.8 °F (12:40 pm)27 °F (2:52 pm)
Humidity51.4 %81 % (5:45 am)7 % (2:52 pm)
Barometer30.18 in30.36 in (11:45 am)29.77 in (8:55 pm)
Wind Speed8.5 mph17.9 mph (8:40 am)
Weather ElementAverage
Visibility7.6 mi
Wind DirectionSE (132.9 °)

Weather ElementTotal
Precipitation---
Heating Degree Days4.6 (Base 65)
Growing Degree Days10.4 (Base 50)
Averaged from 31 records on January 31, 2013
WEATHER CONDITIONS BREAKOUT
WIND DIRECTION BREAKOUT
WEATHER BY HOUR - JANUARY 31, 2013
[ °C ]   °F
Local TimeTemperatureDewpointHumidityBarometerVisibilityWind DirectionWind SpeedGust SpeedPrecipitationEventsConditions
1:45 AM48.2 °F39.2 °F71 %30.28 in7.0 miEast (80°)11.5 mphScattered Clouds
2:40 AM58.0 °F35.0 °F30 %29.83 in6.0 miEast (90°)4.5 mph
2:45 AM46.4 °F39.2 °F76 %30.28 in7.0 miEast (80°)9.2 mphScattered Clouds
3:45 AM44.6 °F37.4 °F76 %30.27 in7.0 miEast (80°)9.2 mphScattered Clouds
4:45 AM44.6 °F37.4 °F76 %30.27 in7.0 miEast (80°)11.5 mphScattered Clouds
5:45 AM48.0 °F42.0 °F72 %29.88 in6.0 miEast (90°)4.5 mphPartly Cloudy
5:45 AM42.8 °F37.4 °F81 %30.27 in7.0 miENE (70°)9.2 mphScattered Clouds
6:45 AM44.6 °F37.4 °F76 %30.29 in7.0 miENE (70°)11.5 mph
7:45 AM46.4 °F39.2 °F76 %30.31 in4.0 miEast (90°)6.9 mphOvercast
8:40 AM47.0 °F40.0 °F69 %30.02 in16.0 miSE (140°)17.9 mphPartly Cloudy
8:45 AM46.4 °F37.4 °F71 %30.33 in4.0 miENE (70°)11.5 mphOvercast
9:45 AM50.0 °F41.0 °F71 %30.35 in4.0 miESE (120°)11.5 mphMostly Cloudy
10:40 AM53.6 °F39.2 °F58 %30.35 in5.0 miENE (70°)11.5 mphPartly Cloudy
11:40 AM61.0 °F40.0 °F34 %30.06 in16.0 miENE (70°)11.2 mphScattered Clouds
11:45 AM60.8 °F39.2 °F45 %30.36 in5.0 miNE (50°)4.6 mphClear
12:40 PM66.2 °F42.8 °F43 %30.34 in5.0 miEast (90°)4.6 mphClear
1:45 PM73.4 °F39.2 °F29 %30.30 in6.0 miSW (220°)3.5 mphClear
2:45 PM73.4 °F37.4 °F27 %30.24 in7.0 miNW (310°)9.2 mphMostly Cloudy
2:50 PM76.0 °F32.0 °F11 %29.78 in12.0 miWNW (300°)2.2 mphScattered Clouds
2:52 PM78.0 °F27.0 °F7 %29.90 in12.0 miNNW (330°)2.2 mphScattered Clouds
3:45 PM77.0 °F39.2 °F26 %30.22 in7.0 miWest (270°)9.2 mphMostly Cloudy
4:45 PM77.0 °F39.2 °F26 %30.22 in7.0 miSW (220°)9.2 mphScattered Clouds
5:45 PM77.0 °F39.2 °F26 %30.22 in7.0 miWest (270°)5.8 mphScattered Clouds
6:45 PM62.6 °F39.2 °F42 %30.22 in7.0 miENE (60°)11.5 mphMostly Cloudy
7:45 PM59.0 °F41.0 °F51 %30.23 in7.0 miSE (140°)8.1 mphScattered Clouds
8:45 PM55.4 °F41.0 °F58 %30.24 in7.0 miEast (90°)6.9 mphScattered Clouds
8:55 PM65.0 °F36.0 °F22 %29.77 in12.0 miSE (140°)8.9 mphScattered Clouds
9:47 PM53.6 °F42.8 °F67 %30.30 in7.0 miEast (100°)8.1 mphScattered Clouds
10:48 PM51.8 °F41.0 °F67 %30.31 in7.0 miEast (90°)11.5 mphScattered Clouds
11:45 PM50.0 °F41.0 °F71 %30.32 in7.0 miEast (100°)9.2 mphClear
11:55 PM56.0 °F37.0 °F38 %29.82 in12.0 miSE (140°)6.7 mph
Hourly data recorded from MMQT, located miles away from Guadalupe Septién, Querétaro







STORIES FROM OUR PARTNERS